EW4279 Weather Reports


time (UTC)temp
F
wind
direction
speed
knots
gust
knots
rain 1hr
in
rain 24hr
in
rain mn
in
humidity
%
barometer
mb
20260507070104 48 324 0.0 1.7 0.00 0.46 0.11 100 1005.2
20260507064625 48 324 0.0 2.6 0.00 0.46 0.11 100 1005.0
20260507063051 48 324 0.0 5.2 0.00 0.46 0.11 100 1005.0
20260507061542 49 323 0.0 1.7 0.00 0.46 0.11 100 1004.7
20260507060049 49 323 0.0 3.5 0.00 0.46 0.11 100 1004.7
20260507054534 49 324 0.0 5.2 0.00 0.46 0.11 100 1004.6
20260507053030 49 327 1.7 7.8 0.00 0.46 0.11 100 1004.3
20260507051525 50 343 0.9 7.0 0.02 0.46 0.11 100 1004.4
20260507050034 50 331 1.7 7.8 0.10 0.46 0.11 100 1004.2
20260507044516 51 327 1.7 7.8 0.12 0.46 0.11 100 1004.4
20260507043011 52 300 3.5 9.6 0.13 0.46 0.11 100 1004.3
20260507041520 52 351 2.6 7.0 0.11 0.44 0.09 100 1004.3
20260507040002 53 340 2.6 9.6 0.02 0.35 0.00 100 1004.7
20260507034559 54 355 3.5 8.7 0.01 0.34 0.34 100 1003.8
20260507033054 55 320 2.6 6.1 0.00 0.33 0.33 100 1003.6
20260507031549 55 180 0.0 0.0 0.00 0.33 0.33 100 1003.4
20260507030046 55 180 0.0 1.7 0.00 0.33 0.33 100 1003.3
20260507024542 54 180 0.0 2.6 0.01 0.33 0.33 100 1003.3
20260507023041 54 180 0.0 1.7 0.01 0.33 0.33 100 1003.5
20260507021536 54 180 0.0 2.6 0.01 0.33 0.33 100 1003.5
20260507020032 55 180 0.0 4.3 0.02 0.33 0.33 100 1003.6
20260507014524 55 180 1.7 4.3 0.01 0.32 0.32 100 1003.6
20260507013019 55 198 0.0 2.6 0.01 0.32 0.32 100 1003.9
20260507011515 55 194 0.0 4.3 0.01 0.32 0.32 100 1003.8
20260507010010 55 207 1.7 6.1 0.00 0.31 0.31 100 1003.9
20260507004506 55 188 2.6 9.6 0.00 0.32 0.31 100 1004.0
20260507003001 55 180 1.7 6.1 0.00 0.32 0.31 100 1003.9
20260507001605 55 199 0.9 6.1 0.00 0.32 0.31 100 1004.0
20260507000053 56 179 0.0 7.0 0.00 0.32 0.31 100 1003.9
20260506234552 56 170 2.6 7.8 0.00 0.35 0.31 100 1003.9
20260506233044 56 155 1.7 8.7 0.00 0.35 0.31 100 1004.0
20260506231555 56 112 1.7 7.0 0.00 0.35 0.31 100 1004.0
20260506230045 56 183 1.7 6.1 0.00 0.35 0.31 100 1003.9
20260506224536 57 165 1.7 5.2 0.00 0.35 0.31 100 1004.2
20260506223026 57 148 1.7 7.0 0.00 0.35 0.31 100 1004.3
20260506221522 57 179 2.6 6.1 0.00 0.35 0.31 100 1004.5
20260506220023 57 170 1.7 9.6 0.01 0.35 0.31 100 1004.7
20260506214513 57 175 2.6 9.6 0.03 0.35 0.31 100 1004.7
20260506213008 57 165 1.7 6.1 0.05 0.35 0.31 100 1004.9
20260506211503 57 152 1.7 7.0 0.05 0.34 0.30 100 1004.9
20260506210106 58 176 2.6 7.8 0.06 0.34 0.30 100 1004.9
20260506204606 58 188 0.9 4.3 0.05 0.32 0.28 100 1004.8
20260506203052 58 202 0.0 3.5 0.05 0.30 0.26 100 1005.1
20260506201549 58 203 0.9 3.5 0.05 0.28 0.25 100 1005.2
20260506200042 58 203 0.9 3.5 0.09 0.28 0.24 100 1005.4
20260506194540 58 184 0.0 3.5 0.18 0.27 0.23 100 1005.5
20260506193034 58 184 0.9 5.2 0.19 0.25 0.21 100 1005.6
20260506191530 59 187 0.0 6.1 0.19 0.24 0.20 100 1005.6
20260506190028 60 247 0.0 3.5 0.14 0.18 0.14 14 1006.0
20260506184524 61 184 0.9 4.3 0.05 0.09 0.05 28 1005.6
20260506183016 62 181 0.0 6.1 0.01 0.05 0.01 48 1005.7
20260506181512 62 128 1.7 8.7 0.01 0.05 0.01 55 1005.4
20260506180010 63 158 0.9 7.0 0.00 0.04 0.00 60 1005.5
20260506174505 63 180 2.6 7.8 0.00 0.04 0.00 61 1005.5
20260506173100 63 157 1.7 7.8 0.00 0.04 0.00 62 1005.8
20260506171603 64 154 1.7 6.1 0.00 0.04 0.00 61 1006.1
20260506170053 64 146 1.7 7.0 0.00 0.04 0.00 64 1006.4
20260506164548 64 167 1.7 4.3 0.00 0.04 0.00 64 1006.6
20260506163040 64 156 1.7 5.2 0.00 0.04 0.00 63 1006.9
20260506161541 64 229 1.7 5.2 0.00 0.04 0.00 61 1007.3
20260506160032 62 146 0.9 3.5 0.00 0.04 0.00 52 1007.6
20260506154528 61 150 0.9 4.3 0.00 0.04 0.00 54 1007.8
20260506153022 61 117 1.7 7.8 0.00 0.04 0.00 48 1007.8
20260506151523 61 153 2.6 7.0 0.00 0.04 0.00 54 1007.9
20260506150013 61 158 1.7 6.1 0.00 0.04 0.00 57 1007.7
20260506144509 62 136 0.9 4.3 0.00 0.04 0.00 55 1007.6
20260506143006 62 138 0.9 4.3 0.00 0.04 0.00 57 1007.3
20260506141601 62 138 1.7 4.3 0.00 0.04 0.00 50 1007.5
20260506140056 61 166 1.7 4.3 0.00 0.04 0.00 52 1008.0
20260506134552 60 167 0.0 2.6 0.00 0.04 0.00 46 1008.0
20260506133047 59 167 0.0 0.0 0.00 0.04 0.00 42 1008.2
20260506131551 58 167 0.0 2.6 0.00 0.04 0.00 42 1007.9
20260506130038 58 167 0.0 2.6 0.00 0.04 0.00 35 1008.1
20260506124535 57 167 0.9 3.5 0.00 0.04 0.00 29 1007.9
20260506123030 56 167 0.0 0.0 0.00 0.04 0.00 18 1008.2
20260506121525 54 167 0.0 0.0 0.00 0.04 0.00 100 1008.5
20260506120022 53 167 0.0 0.0 0.00 0.04 0.00 100 1008.5
20260506114531 53 167 0.0 0.0 0.00 0.04 0.00 100 1008.7
20260506113013 52 167 0.0 0.0 0.00 0.04 0.00 100 1008.8
20260506111508 52 167 0.0 1.7 0.00 0.04 0.00 100 1008.9
20260506110004 52 167 0.0 0.0 0.00 0.04 0.00 100 1008.9
20260506104608 52 167 0.0 1.7 0.00 0.04 0.00 100 1008.8
20260506103056 52 167 0.0 0.0 0.00 0.04 0.00 100 1008.8
20260506101551 52 167 0.0 0.0 0.00 0.04 0.00 100 1008.4
20260506094542 51 167 0.0 0.0 0.00 0.04 0.00 100 1008.5
20260506093037 52 167 0.0 0.0 0.00 0.04 0.00 100 1008.5
20260506091534 52 167 0.0 0.0 0.00 0.04 0.00 100 1008.4
20260506090029 52 167 0.0 0.0 0.00 0.04 0.00 100 1008.2
20260506084525 52 167 0.0 0.0 0.00 0.04 0.00 100 1007.9
20260506083020 52 167 0.0 0.0 0.00 0.04 0.00 100 1007.8
20260506081515 52 167 0.0 0.0 0.00 0.04 0.00 100 1007.8
20260506073002 52 167 0.0 0.0 0.00 0.04 0.00 100 1007.8
20260506071601 52 167 0.0 0.0 0.00 0.04 0.00 100 1007.7